[[{"header":{"parameterUnit":"m.s-1","parameterCategory":1,"la1":30.2991,"la2":30.254,"lo1":-89.0895,"lo2":-89.0444,"dy":0.0017,"dx":0.0017,"nx":28,"ny":28,"refTime":"2024-10-18T21:00:00:Z","depth":0,"parameterNumber":2,"parameterNumberName":"U-component_of_WINDS"},"data":[0,0,0,0,0,0,0,0,0,0,0,0,0,0,0,0,0,0,0,0,0,0,0,0,0,0,0,0,0,0,0,0,0,0,0,0,0,0,0,0,0,0,0,0,0,0,0,0,0,0,0,0,0,0,0,0,0,0,-5.0045,-5.0045,0,-5.0031,-5.0031,-5.0031,-4.9873,-4.9869,-4.9865,-4.9862,-4.9851,-4.9854,-4.9857,0,0,0,0,0,0,0,0,0,0,0,0,0,-4.9938,-4.9941,-5.0045,-5.0045,-5.0045,-5.0031,-5.0031,-5.0031,-4.9874,-4.9869,-4.9864,-4.986,-4.985,-4.9854,-4.9858,0,0,0,0,0,0,0,0,0,0,0,0,0,-4.9961,-4.9942,-5.0045,-4.9965,-4.9957,-5.0031,-5.0031,-5.0031,-4.9875,-4.9869,-4.9863,-4.9858,-4.9848,-4.9853,-4.9858,-5.0009,0,0,-4.9874,-4.9876,0,0,0,0,0,0,0,0,-4.996,-4.9965,-4.9977,-4.997,-4.9962,-4.9948,-4.9989,-5.0024,-4.9877,-4.9906,-4.9862,-4.9855,-4.9888,-4.989,-4.99,-5.0009,-5.0008,-4.9874,-4.9877,-4.988,-4.9881,0,0,0,0,0,0,0,-4.9958,-4.9965,-5.0039,-4.9977,-4.9968,-4.993,-4.9927,-4.9995,-4.9931,-4.9903,-4.9892,-4.9892,-4.9883,-4.9896,-4.9899,-5.0008,-4.9874,-4.9879,-4.9882,-4.9884,-5.0241,-5.0247,0,0,0,0,0,0,-4.9968,-4.9964,-5.004,-5.0039,-4.9946,-4.9937,-4.9933,-4.9959,-4.993,-4.9919,-4.9897,-4.9885,-4.989,-4.9893,-4.9898,-5.0073,-4.988,-4.9884,-4.9887,-5.0234,-5.0242,-5.0249,0,0,0,0,0,0,-4.9966,-4.9976,-5.004,-4.9999,-5.0004,-4.9945,-4.9975,-4.9961,-4.9974,-4.9925,-4.9913,-4.9922,-4.9885,-4.9891,-4.9983,-5.0071,-4.9887,-4.9891,-5.0227,-5.0237,-5.0246,-5.0426,0,0,0,0,0,0,-4.9963,-4.9976,-5.0032,-5.0001,-5.0007,-5.0125,-4.998,-4.9965,-4.9983,-4.9966,-4.9945,-4.9936,-4.9881,-4.9976,-4.9988,-5.0074,-4.9895,-5.0219,-5.0231,-5.0243,-5.0412,-5.044,-5.0465,0,0,0,0,0,-4.996,-5.0084,-5.0036,-5.0046,-5.0075,-5.0131,-5.0134,-5.0067,-4.999,-5.0047,-5.0016,-4.9936,-5.0059,-4.9987,-4.9999,-5.0088,-5.0213,-5.0228,-5.0242,-5.04,-5.0435,-5.0464,0,0,0,0,0,0,-5.0127,-5.0078,-5.0024,-5.0141,-5.0141,-5.0104,-5.0173,-5.0106,-5.0129,-5.0113,-5.003,-5.0027,-5.0132,-5.0119,-5.0039,-5.0233,-5.0122,-5.014,-5.0238,-5.0271,-5.0297,-5.0299,-4.99,0,0,0,0,0,-5.0178,-5.0226,-5.018,-5.0288,-5.029,-5.0232,-5.0254,-5.0203,-5.02,-5.0199,-5.0174,-5.0176,-5.0214,-5.0242,-5.0274,-5.0409,-5.0403,-5.0476,-5.0503,-5.0525,-5.0541,-5.0613,-5.0645,-5.0297,-5.0296,-5.0296,0,0,-5.0282,-5.0261,-5.0297,-5.0321,-5.0315,-5.0368,-5.0233,-5.0294,-5.0333,-5.0208,-5.0294,-5.0277,-5.0272,-5.0387,-5.0436,-5.0379,-5.0636,-5.0543,-5.0561,-5.0566,-5.0631,-5.0664,-5.0694,-5.0306,-5.0305,-5.0303,0,0,-5.05,-5.0489,-5.0577,-5.0574,-5.0567,-5.0527,-5.0549,-5.0522,-5.0505,-5.0589,-5.0497,-5.0543,-5.0611,-5.0612,-5.0622,-5.0841,-5.077,-5.0854,-5.0994,-5.1064,-5.1092,-5.1116,-5.1195,-5.1225,-5.0871,-5.0871,-5.0871,0,-5.0632,-5.0706,-5.0632,-5.0699,-5.0713,-5.0602,-5.0692,-5.0693,-5.0698,-5.071,-5.0646,-5.073,-5.0719,-5.0833,-5.0887,-5.0898,-5.0921,-5.0857,-5.1093,-5.1117,-5.1138,-5.1213,-5.1243,-5.0882,-5.088,-5.0879,-5.0878,0,-5.0869,-5.0923,-5.0995,-5.1002,-5.1024,-5.1103,-5.1041,-5.1072,-5.102,-5.0988,-5.1076,-5.1059,-5.1087,-5.111,-5.1059,-5.1218,-5.1183,-5.1108,-5.0994,-5.1183,-5.1252,-5.1281,-5.0896,-5.0893,-5.089,-5.0887,0,0,-5.1192,-5.1156,-5.1184,-5.1186,-5.117,-5.1211,-5.1285,-5.1312,-5.1341,-5.1348,-5.1409,-5.147,-5.14,-5.1411,-5.136,-5.1422,-5.1599,-5.1339,-5.1337,-5.1389,-5.1774,-5.1832,-5.1866,-5.1551,-5.1556,-5.156,-5.1775,0,-5.1403,-5.1527,-5.1462,-5.1595,-5.1644,-5.154,-5.1605,-5.1603,-5.1575,-5.1614,-5.1583,-5.1628,-5.1532,-5.1538,-5.1595,-5.1566,-5.1675,-5.1549,-5.1609,-5.1612,-5.1614,-5.1902,-5.1963,-5.2166,-5.1801,-5.1806,-5.1809,0,-5.1665,-5.1683,-5.1821,-5.1796,-5.1815,-5.1874,-5.1894,-5.1932,-5.1928,-5.1903,-5.1917,-5.1851,-5.1923,-5.1811,-5.1911,-5.1827,-5.1847,-5.1837,-5.1843,-5.1847,-5.1723,-5.1915,-5.2228,-5.226,-5.1851,-5.1847,-5.1844,0,-5.1889,-5.1947,-5.2037,-5.2042,-5.2015,-5.206,-5.2051,-5.2041,-5.2062,-5.208,-5.2092,-5.2119,-5.2134,-5.2157,-5.2101,-5.2024,-5.2209,-5.2091,-5.2192,-5.2194,-5.2237,-5.2235,-5.256,-5.2249,-5.2248,-5.2248,-5.2247,0,-5.2132,-5.2221,-5.2137,-5.2193,-5.229,-5.2215,-5.2314,-5.2294,-5.2286,-5.2337,-5.2249,-5.2299,-5.2221,-5.2264,-5.222,-5.231,-5.2317,-5.2301,-5.2289,-5.231,-5.2312,-5.2323,-5.2308,-5.2255,-5.2254,-5.2252,-5.2251,0,-5.2398,-5.2345,-5.2437,-5.2405,-5.2398,-5.2472,-5.2444,-5.2495,-5.2461,-5.2527,-5.2538,-5.2486,-5.2532,-5.2478,-5.2519,-5.249,-5.2613,-5.2579,-5.2614,-5.2605,-5.2709,-5.2701,-5.3053,-5.3096,-5.2757,-5.276,-5.2763,0,-5.2557,-5.2623,-5.2597,-5.2625,-5.2621,-5.2666,-5.2687,-5.2616,-5.2642,-5.2643,-5.2695,-5.2733,-5.276,-5.2838,-5.2805,-5.2836,-5.2803,-5.2925,-5.2808,-5.2827,-5.2807,-5.2804,-5.2811,-5.2949,-5.2953,-5.2956,-5.2959,0,-5.2845,-5.2816,-5.2848,-5.2873,-5.29,-5.2916,-5.2925,-5.2953,-5.288,-5.2913,-5.2958,-5.2979,-5.3022,-5.3062,-5.3084,-5.3076,-5.3007,-5.2996,-5.3021,-5.3044,-5.3063,-5.3056,-5.2681,-5.2989,-5.2986,-5.2983,-5.2982,-5.2981,-5.3063,-5.3117,-5.3108,-5.3148,-5.3147,-5.3158,-5.3205,-5.3177,-5.3213,-5.3242,-5.3198,-5.3256,-5.3251,-5.3274,-5.3275,-5.332,-5.3268,-5.3304,-5.3313,-5.3324,-5.334,-5.3055,-5.3323,-5.3322,-5.3321,-5.3321,-5.332,0,-5.3348,-5.3337,-5.3374,-5.339,-5.3422,-5.3352,-5.3359,-5.3391,-5.3442,-5.3444,-5.3472,-5.3525,-5.3564,-5.3534,-5.3566,-5.3608,-5.3577,-5.3619,-5.3616,-5.3616,-5.3384,-5.336,-5.3643,-5.3643,-5.3643,-5.3643,-5.3643,-5.3643,-5.35,-5.3588,-5.3559,-5.3647,-5.3635,-5.369,-5.37,-5.3711,-5.3711,-5.3775,-5.3806,-5.3785,-5.3775,-5.3806,-5.3839,-5.3829,-5.3846,-5.3899,-5.3879,-5.3663,-5.3632,-5.3601,-5.3578,-5.3903,-5.3904,-5.4106,-5.4108,-5.411]},{"header":{"parameterUnit":"m.s-1","parameterCategory":1,"la1":30.2991,"la2":30.254,"lo1":-89.0895,"lo2":-89.0444,"dy":0.0017,"dx":0.0017,"nx":28,"ny":28,"refTime":"2024-10-18T21:00:00:Z","depth":0,"parameterNumber":3,"parameterNumberName":"V-component_of_WINDS"},"data":[0,0,0,0,0,0,0,0,0,0,0,0,0,0,0,0,0,0,0,0,0,0,0,0,0,0,0,0,0,0,0,0,0,0,0,0,0,0,0,0,0,0,0,0,0,0,0,0,0,0,0,0,0,0,0,0,0,0,-1.407,-1.407,0,-1.404,-1.4039,-1.4039,-1.3966,-1.3964,-1.3963,-1.3961,-1.3933,-1.3934,-1.3935,0,0,0,0,0,0,0,0,0,0,0,0,0,-1.4067,-1.4068,-1.407,-1.407,-1.4069,-1.404,-1.4039,-1.4039,-1.3966,-1.3964,-1.3962,-1.396,-1.3933,-1.3934,-1.3935,0,0,0,0,0,0,0,0,0,0,0,0,0,-1.4056,-1.4068,-1.407,-1.4029,-1.4025,-1.404,-1.4039,-1.4039,-1.3966,-1.3964,-1.3962,-1.396,-1.3933,-1.3934,-1.3935,-1.3987,0,0,-1.3938,-1.3938,0,0,0,0,0,0,0,0,-1.4057,-1.4056,-1.4036,-1.4032,-1.4028,-1.4004,-1.4028,-1.4022,-1.3967,-1.3989,-1.3961,-1.3958,-1.3959,-1.3958,-1.3957,-1.3986,-1.3985,-1.3938,-1.3939,-1.3939,-1.3939,0,0,0,0,0,0,0,-1.4058,-1.4057,-1.4058,-1.4035,-1.4031,-1.4013,-1.4009,-1.4026,-1.3987,-1.3987,-1.3981,-1.3979,-1.3956,-1.3956,-1.3956,-1.3984,-1.3938,-1.3939,-1.394,-1.394,-1.4055,-1.4058,0,0,0,0,0,0,-1.4064,-1.4058,-1.4059,-1.4057,-1.4037,-1.4015,-1.401,-1.4014,-1.3987,-1.398,-1.3981,-1.3975,-1.3956,-1.3955,-1.3955,-1.4015,-1.3939,-1.394,-1.3941,-1.4053,-1.4056,-1.4059,0,0,0,0,0,0,-1.4064,-1.4065,-1.406,-1.4056,-1.4054,-1.4018,-1.4022,-1.4015,-1.4014,-1.3982,-1.3975,-1.3988,-1.3954,-1.3953,-1.398,-1.4013,-1.3941,-1.3941,-1.405,-1.4054,-1.4057,-1.4137,0,0,0,0,0,0,-1.4064,-1.4065,-1.4084,-1.4057,-1.4055,-1.4085,-1.4024,-1.4016,-1.4016,-1.4009,-1.3987,-1.3981,-1.3952,-1.3978,-1.3981,-1.4013,-1.3942,-1.4047,-1.4052,-1.4056,-1.4131,-1.4143,-1.4153,0,0,0,0,0,-1.4064,-1.4109,-1.4086,-1.4086,-1.4078,-1.4087,-1.4086,-1.4051,-1.4019,-1.4039,-1.4018,-1.3982,-1.4009,-1.3982,-1.3984,-1.4017,-1.4045,-1.405,-1.4056,-1.4126,-1.414,-1.4152,0,0,0,0,0,0,-1.4142,-1.4104,-1.4079,-1.4115,-1.4105,-1.4075,-1.4099,-1.4067,-1.4067,-1.406,-1.4017,-1.4012,-1.4045,-1.4033,-1.4004,-1.4067,-1.4021,-1.4027,-1.4074,-1.4087,-1.4098,-1.4101,-1.3943,0,0,0,0,0,-1.4163,-1.4173,-1.414,-1.4175,-1.4171,-1.4136,-1.4139,-1.4112,-1.41,-1.4096,-1.4077,-1.4068,-1.4074,-1.408,-1.4083,-1.4128,-1.4123,-1.4152,-1.4163,-1.4172,-1.4179,-1.4202,-1.4215,-1.4077,-1.4077,-1.4077,0,0,-1.4208,-1.4188,-1.4198,-1.419,-1.4179,-1.4192,-1.4133,-1.4149,-1.4158,-1.4099,-1.4123,-1.4108,-1.4095,-1.4131,-1.4146,-1.4123,-1.4215,-1.4179,-1.4186,-1.4188,-1.4209,-1.4222,-1.4234,-1.408,-1.408,-1.4079,0,0,-1.4295,-1.4281,-1.4309,-1.4299,-1.4282,-1.4258,-1.4265,-1.424,-1.4228,-1.4251,-1.4207,-1.4217,-1.4229,-1.4221,-1.4219,-1.4302,-1.427,-1.4305,-1.4362,-1.4386,-1.4397,-1.4406,-1.4438,-1.4449,-1.4311,-1.4311,-1.4311,0,-1.4353,-1.4369,-1.4328,-1.4346,-1.4345,-1.429,-1.4319,-1.4311,-1.4298,-1.4299,-1.4271,-1.4285,-1.4272,-1.4306,-1.4326,-1.4325,-1.4333,-1.4308,-1.4398,-1.4407,-1.4416,-1.4445,-1.4457,-1.4315,-1.4315,-1.4314,-1.4314,0,-1.4442,-1.4454,-1.4478,-1.4466,-1.4466,-1.449,-1.4453,-1.4459,-1.4432,-1.4411,-1.4435,-1.4418,-1.4417,-1.4423,-1.4397,-1.4453,-1.4439,-1.4406,-1.4359,-1.4434,-1.4461,-1.4472,-1.4322,-1.432,-1.4319,-1.4318,0,0,-1.4581,-1.4543,-1.4553,-1.4546,-1.4523,-1.4532,-1.4553,-1.4552,-1.4559,-1.455,-1.4568,-1.4578,-1.4547,-1.4544,-1.4517,-1.4537,-1.4606,-1.4501,-1.45,-1.4523,-1.4669,-1.4696,-1.471,-1.4583,-1.4585,-1.4587,-1.4671,0,-1.4664,-1.4698,-1.4661,-1.4702,-1.4713,-1.466,-1.4679,-1.4667,-1.4648,-1.4655,-1.4633,-1.4642,-1.4599,-1.4597,-1.4615,-1.4594,-1.4635,-1.4587,-1.4601,-1.4602,-1.4609,-1.4723,-1.4752,-1.4832,-1.4681,-1.4682,-1.4684,0,-1.4767,-1.4763,-1.4806,-1.478,-1.4783,-1.48,-1.4796,-1.4802,-1.4788,-1.4772,-1.4769,-1.4735,-1.4755,-1.4707,-1.4735,-1.4703,-1.4706,-1.4696,-1.4699,-1.4701,-1.4649,-1.4731,-1.4857,-1.487,-1.47,-1.4698,-1.4697,0,-1.4867,-1.4871,-1.4897,-1.4893,-1.4863,-1.4876,-1.4865,-1.4848,-1.4849,-1.4845,-1.4846,-1.4845,-1.4845,-1.4845,-1.4812,-1.478,-1.4844,-1.4794,-1.4833,-1.4835,-1.4852,-1.4851,-1.4983,-1.485,-1.4849,-1.4849,-1.4849,0,-1.4966,-1.4995,-1.4941,-1.4958,-1.4988,-1.4945,-1.4977,-1.496,-1.4945,-1.4958,-1.4911,-1.4925,-1.4879,-1.4888,-1.4862,-1.4889,-1.4889,-1.4878,-1.4871,-1.4884,-1.4886,-1.4887,-1.4882,-1.4852,-1.4852,-1.4851,-1.4851,0,-1.5083,-1.5048,-1.5074,-1.5042,-1.5035,-1.5059,-1.5033,-1.5047,-1.5024,-1.5041,-1.5042,-1.5006,-1.5014,-1.498,-1.4982,-1.4964,-1.5006,-1.4988,-1.5011,-1.5007,-1.5049,-1.5046,-1.5188,-1.5205,-1.5059,-1.506,-1.5062,0,-1.515,-1.5171,-1.5141,-1.5146,-1.5136,-1.5144,-1.5145,-1.5102,-1.5105,-1.509,-1.5107,-1.511,-1.5111,-1.5126,-1.5101,-1.5102,-1.5086,-1.5135,-1.5086,-1.5098,-1.5089,-1.5089,-1.5092,-1.5147,-1.5148,-1.515,-1.5151,0,-1.5273,-1.5254,-1.5257,-1.5253,-1.5255,-1.525,-1.5243,-1.525,-1.5204,-1.5209,-1.5216,-1.5216,-1.5218,-1.5223,-1.5218,-1.5207,-1.5173,-1.5166,-1.5176,-1.519,-1.5203,-1.5199,-1.5041,-1.5164,-1.5163,-1.5162,-1.5161,-1.516,-1.5369,-1.5385,-1.5366,-1.537,-1.536,-1.5353,-1.5365,-1.5343,-1.5347,-1.5344,-1.5319,-1.5331,-1.5315,-1.5306,-1.5298,-1.5307,-1.5284,-1.5298,-1.5302,-1.5306,-1.5315,-1.5199,-1.5306,-1.5306,-1.5305,-1.5305,-1.5305,0,-1.5491,-1.5476,-1.548,-1.547,-1.5474,-1.5438,-1.5427,-1.5433,-1.5444,-1.5432,-1.5433,-1.5441,-1.5445,-1.5419,-1.542,-1.5432,-1.5416,-1.5434,-1.5434,-1.5433,-1.5334,-1.5327,-1.5447,-1.5447,-1.5447,-1.5447,-1.5447,-1.5447,-1.5555,-1.5581,-1.556,-1.558,-1.5565,-1.5575,-1.5572,-1.5567,-1.5557,-1.5568,-1.557,-1.5552,-1.5535,-1.5534,-1.5537,-1.5529,-1.5532,-1.5556,-1.5544,-1.5453,-1.5439,-1.5426,-1.5419,-1.5557,-1.5557,-1.5641,-1.5642,-1.5642]}]]